Cloud_Cover
4 20 3 0 0 0 0 0 0 0 50 92 100 84 14 30 100 96 100 100 100 100 80 15 1 3 5 5 5 5 5 1 2 5 3 0 0 0 0 0 0 0 0 0 0
5 65 100 0 0 0 0 0 0 0 6 86 100 98 5 53 98 89 99 100 100 100 98 16 8 5 44 5 2 5 10 5 0 1 1 0 0 0 0 0 0 5 5 0 2
5 5 100 100 0 0 0 3 13 2 3 99 100 98 87 64 70 100 43 98 100 100 89 55 21 99 30 74 5 26 5 95 4 0 6 5 5 5 5 5 38 6 10 35 5
5 5 3 98 0 2 16 29 37 36 19 100 100 100 100 98 28 100 74 100 100 100 100 100 60 59 100 82 7 17 77 96 44 4 6 64 5 5 27 5 5 2 0 0 1
41 10 5 4 5 17 99 20 100 98 82 100 100 100 100 73 91 25 100 100 100 90 100 94 40 93 98 100 100 100 100 100 91 35 58 5 5 5 5 4 5 2 3 0 0
100 80 5 5 25 42 4 96 91 100 99 90 100 99 100 100 91 44 99 100 100 100 100 94 98 86 100 100 100 100 100 100 100 74 5 5 5 0 5 5 5 0 0 0 4
100 76 66 87 30 10 1 2 82 9 35 97 100 96 98 100 100 80 100 100 100 100 100 100 61 99 100 100 100 89 100 99 98 46 96 96 40 17 5 46 8 0 0 5 0
100 90 100 91 6 5 2 1 30 95 63 100 85 100 98 100 100 93 41 83 32 70 100 100 100 26 100 100 100 65 100 71 46 97 94 99 100 52 5 37 5 5 5 42 5
100 100 84 98 32 5 5 5 82 91 7 97 100 85 100 88 78 99 18 94 25 79 100 100 100 50 100 100 100 100 96 78 68 6 21 64 100 99 5 5 5 8 36 99 85
100 100 100 98 97 11 100 28 5 87 100 84 100 100 97 95 64 79 79 99 89 93 100 83 100 100 100 100 100 100 100 100 97 20 27 92 100 8 5 5 75 5 13 100 100
100 100 100 100 98 100 34 9 5 5 63 97 29 90 95 5 29 100 32 38 84 72 100 100 100 100 100 100 100 100 100 100 6 14 44 98 59 100 27 12 98 95 100 100 100
100 100 100 100 100 100 100 36 3 0 3 60 20 14 75 5 22 100 100 97 36 91 100 100 100 96 50 92 100 100 100 100 56 15 49 37 45 100 99 57 94 98 19 98 100
100 100 100 100 100 100 100 77 3 5 4 0 5 100 100 8 37 52 100 100 100 99 100 100 100 5 6 37 89 100 100 75 18 61 100 100 100 92 99 100 98 100 98 86 100
100 100 100 100 100 100 98 33 4 5 5 0 0 12 98 93 50 95 99 100 100 66 100 100 84 3 5 50 65 90 44 5 5 7 52 50 79 99 100 100 100 100 100 100 100
100 100 100 100 100 100 100 30 7 5 5 5 0 0 98 93 74 100 82 68 99 100 89 100 100 5 16 100 30 100 100 18 35 32 77 78 80 100 97 98 33 18 100 100 100
100 100 100 100 100 100 100 97 99 5 24 11 0 3 0 7 82 72 54 14 93 92 100 100 73 6 100 99 97 100 100 100 100 100 100 83 93 100 100 75 100 84 100 100 100
100 100 100 100 100 100 100 100 100 100 45 5 4 5 4 0 4 43 94 100 96 93 100 100 93 7 95 100 100 100 99 43 20 38 100 35 100 100 100 91 93 100 66 77 99
100 100 100 100 100 100 100 100 100 100 7 6 5 5 5 0 0 4 99 100 72 95 100 100 100 100 100 100 99 49 22 1 28 16 88 41 100 100 100 99 100 100 100 100 100
100 100 98 100 100 100 100 100 100 100 94 5 5 40 7 5 0 0 37 100 100 100 100 100 100 100 90 98 52 14 6 9 4 5 79 95 100 100 94 100 94 52 93 94 75
100 100 100 100 100 100 100 100 100 100 99 22 5 5 5 5 4 0 0 65 100 100 100 100 100 98 100 30 5 6 51 6 22 5 50 82 100 100 93 97 87 77 64 80 44
100 96 100 100 100 100 100 100 100 100 100 100 93 26 7 4 6 19 0 0 6 69 100 100 100 86 96 32 100 91 74 44 14 56 21 100 100 100 100 87 83 87 82 99 17
100 83 100 100 100 100 100 100 100 100 100 100 100 93 5 5 5 33 7 0 0 0 87 100 100 100 100 100 99 11 33 98 100 91 39 100 100 51 100 95 10 29 100 100 98
100 98 100 100 100 100 100 100 100 100 100 58 88 94 12 43 5 5 97 2 0 0 0 1 76 93 100 100 100 100 100 100 62 90 100 57 100 11 100 100 78 70 91 42 43
100 100 100 100 100 100 100 100 100 100 100 100 100 100 82 37 5 16 97 55 5 1 0 0 0 3 94 100 100 100 100 100 22 86 100 100 100 100 94 100 100 100 35 5 28
100 100 100 100 100 100 100 100 100 100 100 100 100 100 100 78 76 98 100 5 23 5 0 0 0 0 1 100 100 100 100 98 100 100 100 100 87 100 100 100 100 97 100 99 100
100 100 100 100 100 100 100 100 100 100 100 100 100 100 100 100 20 100 100 5 5 5 0 0 0 0 0 88 100 100 100 100 100 100 100 100 100 100 100 98 100 100 100 100 100
100 100 100 100 100 100 100 100 100 100 100 100 100 100 100 100 67 100 100 41 89 45 5 0 0 0 0 16 97 100 100 100 100 100 100 100 100 100 94 100 100 100 100 100 76